Theta_e
345 350 351 353 353 351 351 351 351 351 353 354 354 355 354 355 355 355 355 355 356 357 356 354 355 354 353 353 351 352 352 352 352 353 354 353 352 353 352 352 351 349 352
347 350 349 352 352 352 352 351 351 352 354 354 354 354 354 354 354 354 354 354 355 357 354 354 355 355 354 353 349 350 350 349 349 351 353 352 352 352 353 351 350 350 352
347 349 351 350 352 352 352 352 352 353 354 354 354 354 354 353 354 354 353 353 354 356 354 354 355 354 354 350 347 347 348 348 349 350 351 346 346 351 351 350 351 352 352
346 348 349 350 351 352 351 351 352 354 354 354 354 354 354 353 353 353 352 352 354 356 354 353 353 352 351 348 346 346 346 347 347 348 344 346 346 351 351 351 351 351 351
345 346 349 348 349 351 351 350 350 352 352 352 353 354 354 354 353 353 352 352 355 356 354 353 353 353 347 345 344 344 345 344 344 345 343 340 341 347 350 351 351 351 350
346 346 345 345 347 350 351 351 351 350 349 350 351 353 354 354 354 353 351 352 355 356 356 355 354 351 345 343 343 343 343 342 342 338 339 341 339 348 350 351 349 349 348
345 345 345 344 346 348 350 351 351 350 349 350 350 351 352 354 354 352 350 350 352 355 356 355 353 350 346 343 342 342 341 340 339 337 339 339 334 348 350 349 349 348 348
344 345 347 347 346 345 346 347 346 347 349 349 350 350 352 352 351 351 350 350 350 351 351 351 349 348 348 346 343 341 339 339 339 336 338 337 340 345 352 349 348 346 347
327 329 334 339 345 345 343 343 343 344 345 347 348 348 349 348 348 349 350 349 349 348 348 349 348 347 347 347 344 340 338 339 335 335 337 338 342 346 350 348 347 347 347
321 322 325 328 333 342 344 342 342 342 342 343 344 345 345 346 345 344 345 346 348 348 347 347 345 345 345 344 343 340 338 338 335 335 336 336 343 347 351 348 347 347 346
318 318 320 323 328 335 340 345 343 343 344 343 343 343 341 343 345 346 344 343 343 343 344 344 343 343 341 342 342 340 339 337 335 335 335 337 341 349 350 348 347 346 346
311 313 315 318 322 331 337 336 337 345 339 333 332 334 342 342 343 344 342 339 340 340 340 341 341 340 338 342 341 338 338 337 336 336 335 337 341 348 350 347 346 346 345
308 310 311 313 317 325 330 332 334 334 331 328 326 327 330 331 332 334 334 336 338 338 340 340 340 341 341 340 341 337 337 337 337 338 337 336 340 348 349 347 347 347 345
306 307 309 309 312 318 324 325 328 328 325 322 322 320 320 321 323 325 328 332 333 331 331 333 334 335 335 341 333 329 331 329 330 335 338 333 337 344 348 348 348 347 346
304 304 305 306 308 312 320 319 321 322 320 318 317 317 314 314 314 318 323 328 324 327 328 330 331 332 331 333 331 331 330 328 329 332 337 333 334 340 346 348 350 347 346
304 303 304 304 305 306 313 316 316 317 315 312 311 312 312 310 311 313 316 315 317 321 323 328 329 333 331 327 328 328 328 328 327 329 338 336 330 332 339 344 346 348 348
302 303 303 304 304 303 307 310 313 313 310 308 307 308 308 308 308 309 310 311 313 317 317 318 319 323 330 326 324 325 327 327 328 330 335 336 334 330 330 336 341 343 345
301 301 302 304 302 302 302 304 307 308 307 306 306 306 307 307 307 305 306 306 308 309 310 311 312 313 316 324 321 320 324 326 328 329 334 335 334 335 333 331 333 337 340
300 300 300 300 300 301 301 303 303 304 305 304 303 304 304 305 306 304 303 302 304 304 304 305 306 308 310 312 314 322 320 320 324 329 330 332 334 334 335 332 329 330 334
299 300 299 300 299 299 300 301 302 302 302 301 301 302 301 302 301 301 300 299 300 300 299 299 300 302 305 304 308 316 319 324 325 326 328 331 332 334 335 336 333 331 327
298 298 297 297 297 297 297 297 298 297 297 298 298 298 298 296 297 296 296 296 296 296 296 297 296 297 301 301 305 305 311 317 324 328 330 330 330 333 335 335 333 333 332
296 296 296 296 296 296 296 295 296 296 296 295 296 295 296 294 294 294 292 292 293 294 294 294 294 293 296 297 296 299 305 309 311 314 321 325 326 329 331 332 332 333 333
294 294 295 295 295 295 295 294 294 294 294 292 292 292 292 293 292 292 292 291 291 292 291 291 292 292 291 294 295 297 299 299 300 308 312 312 318 319 323 327 329 330 331
293 294 294 295 294 294 293 292 291 290 288 289 289 290 290 291 291 291 291 290 290 292 291 292 293 293 293 290 293 297 297 296 297 296 304 307 308 310 311 316 322 325 327
293 292 293 294 293 293 291 291 289 288 288 288 288 287 288 289 290 290 290 289 289 291 291 291 291 292 292 291 292 293 293 294 296 296 295 299 301 303 303 306 310 316 323
292 291 292 293 292 291 290 289 288 287 286 286 286 285 286 287 288 288 288 288 288 288 288 289 290 290 290 290 291 291 291 291 292 292 292 293 293 297 300 301 303 309 313
Wind_Speed
3 3 6 8 8 9 10 11 11 10 10 10 10 11 12 12 12 11 10 10 10 10 12 11 9 9 7 7 7 7 7 5 6 7 8 11 14 15 16 13 13 11 15
10 6 7 8 8 9 10 10 10 10 10 10 9 9 9 10 10 10 9 8 8 9 11 9 8 7 6 6 6 7 6 5 6 6 7 10 12 15 14 11 12 12 13
10 9 7 8 8 9 10 10 10 10 9 9 9 9 8 8 9 9 9 8 7 7 8 7 8 7 7 6 5 6 4 4 6 5 5 3 4 11 12 11 12 13 13
10 7 7 9 8 8 8 9 9 9 9 9 8 8 8 7 8 8 8 7 7 6 7 6 6 6 5 5 4 5 3 3 4 3 3 4 5 8 9 16 15 14 13
7 5 7 8 7 7 7 7 8 8 8 8 8 7 7 7 7 7 8 8 7 6 6 7 6 7 5 4 3 3 3 4 4 4 4 3 4 7 13 14 13 13 13
6 5 6 6 6 6 6 6 5 5 5 6 6 6 6 6 7 8 8 9 9 8 8 8 7 7 6 6 5 4 3 5 3 4 4 4 5 9 13 13 12 12 10
6 6 6 7 7 5 4 4 4 3 2 3 5 7 7 7 7 7 8 9 9 9 9 9 10 9 9 9 8 7 6 7 3 4 4 4 6 11 15 13 13 12 11
10 8 7 7 4 5 6 5 4 3 4 4 5 6 7 7 7 8 9 10 11 10 10 10 8 10 11 10 10 9 7 6 4 5 5 4 8 10 15 15 14 14 13
14 13 11 11 8 5 7 2 7 6 6 5 5 5 5 6 7 9 10 11 12 11 11 11 10 10 10 11 11 9 8 9 5 4 6 4 11 13 15 16 15 15 15
14 13 13 11 10 9 8 4 5 3 2 1 2 3 5 6 6 9 10 10 12 12 12 11 11 11 11 11 11 10 9 9 5 5 5 5 10 16 17 18 17 16 16
11 12 10 10 10 9 9 8 5 6 7 8 7 7 5 3 4 4 6 9 10 12 13 14 14 13 13 13 11 10 8 3 5 3 3 11 11 15 17 18 17 17 17
12 11 9 9 9 7 7 8 9 9 9 9 10 11 5 3 4 6 8 11 12 13 14 13 13 13 9 4 4 7 3 4 4 5 3 11 15 18 19 19 18 18 17
6 10 12 10 8 7 6 5 4 5 5 6 10 9 8 7 5 5 5 5 5 11 5 7 6 4 6 5 3 5 5 4 4 5 7 11 15 18 20 19 19 18 18
10 9 9 10 9 8 5 5 5 5 6 6 7 9 6 5 5 5 5 5 6 5 6 4 2 4 6 7 9 8 6 6 4 4 7 11 14 19 23 23 21 21 20
11 9 9 10 8 6 6 4 5 6 6 6 7 7 6 6 5 5 6 6 6 6 6 6 4 4 4 4 5 8 6 2 5 8 5 9 14 19 23 22 21 22 21
9 9 8 9 8 6 5 6 4 4 5 5 7 8 10 7 7 8 7 7 7 7 7 5 6 4 2 1 5 6 9 9 13 17 5 6 8 12 19 23 22 21 22
6 6 7 7 8 9 6 6 5 5 6 7 6 9 10 10 9 7 7 7 8 7 9 7 8 7 4 2 4 6 7 9 8 10 6 4 4 3 13 14 18 20 22
7 7 7 7 8 8 7 6 4 5 6 6 6 7 10 10 9 8 7 8 8 7 7 8 7 8 6 5 3 4 4 6 9 8 4 5 5 3 9 16 15 14 20
8 7 8 8 7 7 6 5 6 8 7 6 7 7 9 10 11 8 8 8 9 8 8 8 7 5 6 7 8 5 5 5 5 5 7 8 7 7 9 13 17 15 14
7 6 8 7 8 7 4 5 5 7 5 7 7 8 12 11 13 10 8 10 9 8 9 9 9 8 4 7 7 7 5 5 5 5 7 8 9 11 10 10 8 10 17
7 8 7 9 7 5 4 3 4 4 4 6 7 12 13 11 11 10 7 8 8 7 8 10 7 10 5 11 4 5 5 6 7 7 6 7 6 9 7 7 5 6 7
7 7 8 8 7 6 4 2 3 3 4 4 6 10 11 11 11 10 8 7 8 6 9 9 10 6 4 8 5 4 4 5 4 4 4 5 5 3 4 5 5 5 6
7 7 9 8 7 6 6 3 3 4 4 5 6 6 8 9 9 8 8 6 6 5 5 6 8 9 6 3 7 3 4 3 7 4 2 3 3 2 3 4 5 6 5
6 7 9 8 8 7 7 6 7 5 4 3 3 4 6 7 9 8 7 7 5 5 7 7 7 7 7 7 6 5 6 6 4 7 4 4 5 5 6 5 5 5 6
7 7 8 9 8 7 7 6 5 7 5 3 4 5 5 5 8 9 8 6 7 6 7 8 8 7 5 5 6 6 7 6 8 5 10 5 8 6 8 7 6 8 6
8 8 8 10 8 7 7 7 8 7 6 4 5 4 3 4 5 8 8 8 8 8 7 6 7 8 7 7 6 7 6 5 7 6 7 13 15 8 5 10 8 6 7
Wind_Direction
147 156 133 126 131 129 128 124 122 119 114 110 107 107 109 114 115 116 120 125 127 127 128 125 126 130 133 122 109 93 91 123 122 116 121 126 133 135 134 134 128 128 130
126 142 127 128 138 141 138 133 132 127 122 117 110 109 113 117 121 125 128 127 125 126 127 125 128 138 136 122 114 111 127 135 113 122 126 134 139 144 139 138 135 137 136
140 137 129 133 143 146 145 143 140 136 131 126 123 122 124 126 131 133 138 139 137 128 127 123 126 130 134 137 125 113 125 115 122 141 137 133 149 153 153 145 142 145 143
134 125 127 142 146 147 144 143 140 138 138 139 143 143 147 151 151 154 156 161 162 153 146 146 146 141 149 154 138 124 130 141 126 191 158 167 183 168 178 156 150 153 150
108 131 132 127 127 126 131 137 144 149 152 154 160 162 163 169 170 176 182 182 185 188 181 176 173 155 163 172 169 164 177 200 155 217 227 206 236 186 156 155 155 159 157
96 97 102 101 105 106 118 137 152 160 160 166 175 185 183 185 196 196 205 204 201 203 202 198 183 178 178 194 206 220 213 252 220 242 248 207 213 185 169 163 162 162 164
112 108 120 122 120 116 114 110 111 115 144 190 205 208 211 204 207 219 223 226 223 218 217 213 202 195 200 205 211 224 228 243 234 248 262 252 199 204 179 179 167 168 170
60 51 40 33 50 138 142 130 110 133 167 193 210 221 225 230 230 231 236 238 234 231 229 229 221 212 200 209 216 223 228 235 248 249 250 235 201 218 192 183 176 173 174
47 43 38 31 17 9 340 176 168 182 181 194 207 223 234 235 233 236 241 245 244 238 234 233 228 223 214 212 211 214 230 245 216 247 251 219 220 236 200 193 185 180 176
47 42 30 19 13 24 5 283 297 272 237 268 260 251 245 251 257 258 250 244 240 246 245 239 238 236 232 221 216 210 218 242 229 229 260 259 231 214 199 193 190 185 182
50 39 29 22 13 4 19 24 25 354 7 3 348 314 293 303 301 300 283 278 268 251 243 235 232 231 233 225 217 210 207 229 246 214 227 263 264 223 201 196 188 189 186
36 39 36 23 12 17 30 24 32 37 45 33 18 6 5 13 355 34 28 3 333 293 278 259 240 241 248 239 231 229 195 213 246 250 225 243 242 232 210 196 193 192 192
47 42 23 19 15 15 16 18 40 62 51 34 29 21 12 25 2 18 25 7 4 357 344 346 339 303 266 234 210 37 43 6 313 286 274 245 249 241 221 202 194 195 199
59 47 28 15 12 14 23 30 32 52 64 50 36 28 22 19 3 8 33 352 6 355 348 342 334 299 307 275 110 76 37 2 321 290 273 262 253 253 229 208 197 198 201
58 43 32 25 15 9 30 26 35 48 56 50 41 37 27 23 15 8 23 5 8 355 353 334 350 8 357 64 117 131 135 216 269 276 249 262 250 238 231 215 205 202 207
63 41 28 24 7 16 37 47 49 55 48 52 48 37 29 29 17 20 18 8 4 356 349 333 1 341 331 291 155 185 204 233 205 233 195 220 207 264 237 214 209 206 211
97 85 51 36 11 17 24 40 66 69 66 54 45 41 40 35 24 19 25 12 6 357 354 355 360 343 330 277 237 208 236 230 237 248 253 252 166 221 275 257 218 209 213
93 72 71 57 35 27 22 20 42 56 71 64 48 41 35 36 35 32 26 15 357 1 359 0 356 340 340 326 280 265 235 219 232 231 218 227 235 215 252 248 260 247 218
111 96 69 54 49 37 34 46 50 53 58 41 39 37 29 31 32 37 32 14 2 4 10 0 349 343 329 339 321 294 256 246 233 240 229 223 234 218 224 233 229 236 226
102 93 79 63 37 28 38 49 51 63 52 47 43 41 38 39 35 36 31 23 14 13 9 1 350 347 311 337 306 297 279 252 244 229 234 241 230 233 226 218 222 228 238
103 97 78 71 41 41 26 37 45 50 42 44 44 41 55 41 42 36 31 21 14 17 9 4 347 353 332 356 323 337 297 259 245 227 217 225 237 243 231 225 216 220 224
128 113 95 79 60 42 38 46 91 114 65 64 49 48 54 48 40 40 28 19 13 13 12 5 10 353 328 4 344 289 318 330 356 300 262 242 239 263 268 252 236 224 225
128 118 104 90 72 59 53 48 49 69 50 40 34 46 45 50 43 33 28 19 10 17 8 353 3 1 351 325 341 295 328 311 329 319 320 313 331 337 291 267 259 245 227
136 110 98 89 79 65 53 58 71 84 98 50 50 46 43 39 37 28 20 12 9 16 14 1 4 352 349 342 341 356 336 301 312 311 320 321 10 355 341 326 300 281 273
123 113 96 88 74 65 62 64 68 75 74 58 53 52 44 34 33 24 19 12 14 15 15 7 359 353 349 343 337 331 316 318 268 274 293 308 331 334 325 304 330 317 315
110 98 96 84 72 63 60 57 67 76 68 62 44 46 27 31 36 27 18 18 20 17 7 0 2 5 2 354 346 338 333 322 324 307 300 305 299 302 333 315 311 313 318